Location: Catacaguana
(10.4120°N, 66.7591°W)
Time: 04:20:53
(UTC+00:00)

Sakura Rocket - Pass Details

Date: 27 May 2022
Orbit: 476 x 1738 km, 28.7° (Epoch: 24 June)

Event Time Altitude Azimuth Distance (km) Brightness Sun altitude
Rises 00:45:47 0° 304° (NW) 3,418 8.1 -27.7°
Reaches altitude 10° 00:48:45 10° 309° (NW) 2,274 6.9 -28.4°
Enters shadow 00:52:39 39° 343° (NNW) 951 4.2 -29.2°
